Date,TemperatureHighF,TemperatureAvgF,TemperatureLowF,DewpointHighF,DewpointAvgF,DewpointLowF,HumidityHigh,HumidityAvg,HumidityLow,PressureMaxIn,PressureMinIn,WindSpeedMaxMPH,WindSpeedAvgMPH,GustSpeedMaxMPH,PrecipitationSumIn
2013-2-1,69.0,50.1,35.0,23.0,18.4,12.0,56,31,16,30.03,29.94,6,2,8,0.00
2013-2-2,67.0,53.1,41.0,26.0,19.0,13.0,46,28,16,30.09,29.97,6,2,8,0.00
2013-2-3,64.0,53.5,46.0,42.0,28.1,16.0,81,41,17,30.00,29.85,9,4,12,0.00
2013-2-4,70.0,52.3,36.0,28.0,19.3,7.0,63,31,16,29.91,29.82,6,2,8,0.00
2013-2-5,72.0,53.5,34.0,22.0,14.9,4.0,44,23,15,29.88,29.73,10,3,15,0.00
2013-2-6,65.0,50.7,41.0,32.0,19.1,2.0,65,32,16,29.85,29.73,15,5,21,0.00
2013-2-7,68.0,50.5,31.0,21.0,10.9,-2.0,36,20,16,29.88,29.65,15,4,22,0.00
2013-2-8,47.0,41.3,35.0,24.0,11.9,4.0,60,31,20,29.65,29.59,18,11,28,0.00
2013-2-9,49.0,39.0,31.0,17.0,12.3,3.0,51,35,20,29.76,29.59,17,9,23,0.00
2013-2-10,51.0,39.3,29.0,23.0,11.4,3.0,56,34,20,29.82,29.73,8,4,14,0.00
2013-2-11,50.0,40.3,30.0,23.0,11.7,-5.0,56,34,19,29.97,29.79,11,4,17,0.00
2013-2-12,59.0,40.0,24.0,16.0,3.5,-7.0,38,22,18,30.06,29.97,6,2,8,0.00
2013-2-13,64.0,46.0,29.0,18.0,8.0,-2.0,29,21,17,30.06,29.94,7,2,9,0.00
2013-2-14,66.0,49.7,33.0,19.0,12.5,5.0,39,23,16,30.03,29.94,7,2,12,0.00
2013-2-15,64.0,51.1,35.0,18.0,11.3,2.0,37,20,16,30.09,30.00,16,4,18,0.00
2013-2-16,68.0,50.1,34.0,20.0,8.7,-2.0,22,18,16,30.09,29.82,12,4,17,0.00
2013-2-17,67.0,51.6,34.0,19.0,10.2,-2.0,22,19,16,29.82,29.70,16,6,23,0.00
2013-2-18,68.0,50.4,34.0,20.0,10.3,0.0,27,20,16,29.79,29.67,7,3,12,0.00
2013-2-19,62.0,43.6,31.0,25.0,17.2,2.0,66,37,17,29.67,29.41,15,6,23,0.00
2013-2-20,47.0,37.4,28.0,36.0,22.9,13.0,100,60,32,29.73,29.41,17,11,24,0.04
2013-2-21,54.0,39.3,31.0,27.0,15.0,2.0,79,41,19,29.85,29.70,9,4,13,0.04
2013-2-22,59.0,43.5,28.0,19.0,12.8,4.0,53,31,18,29.97,29.82,8,3,9,0.00
2013-2-23,64.0,48.7,32.0,19.0,15.7,6.0,48,29,16,29.91,29.67,23,10,31,0.00
2013-2-24,56.0,43.0,31.0,13.0,4.5,-4.0,22,20,18,29.97,29.85,11,3,17,0.00
2013-2-25,65.0,46.9,27.0,18.0,7.3,-7.0,24,20,16,30.03,29.82,18,4,24,0.00
2013-2-26,61.0,48.4,37.0,17.0,8.4,1.0,23,19,18,29.94,29.79,10,4,17,0.00
2013-2-27,61.0,45.0,29.0,16.0,5.7,-6.0,22,19,17,30.12,29.94,7,2,12,0.00
2013-2-28,69.0,47.3,29.0,21.0,6.9,-6.0,21,19,16,30.18,30.06,7,2,13,0.00